Retour au catalogue

STARLINK-30764

ActifCommunicationsVLEO
NORAD 58170·PAYLOAD·🇺🇸 United States

Lancé Oct 29, 2023 depuis Vandenberg Space Force Base

Loading…

Prochains Passages (prochaines 24 heures)

TLE

FraisSource: CelesTrak SupGP

Époque: Sep 14, 2026, 21:58 UTC

1 58170C 23166W   26257.91576389  .00042406  00000+0  12533-2 0  2577
2 58170  53.1605  59.6876 0001022  81.1369 317.0988 15.34360530    14

Suivez STARLINK-30764 en temps réel avec AllMySat

Download on the App Store